Stockton, CA

4:26 AM PDT on October 22, 2017 (GMT -0700)
Stockton Metro

Weather History for KSCK - August, 2013

Change the Weather History Date:

Wednesday, August 21, 2013

  Actual Average Record
Temperature  
Mean Temperature 76 °F -  
Max Temperature 90 °F 92 °F 102 °F (1969)
Min Temperature 61 °F 59 °F 52 °F (2002)
Degree Days  
Heating Degree Days 0 0  
Month to date heating degree days 0 0  
Since 1 June heating degree days 0 7  
Since 1 July heating degree days 0 0  
Cooling Degree Days 11 10  
Month to date cooling degree days 213 233  
Year to date cooling degree days 1063 945  
Since 1 June cooling degree days 882 826  
Growing Degree Days 26 (Base 50)    
Moisture  
Dew Point 54 °F    
Average Humidity 54    
Maximum Humidity 78    
Minimum Humidity 29    
Precipitation  
Precipitation 0.00 in 0.01 in 0.03 in (1968)
Month to date precipitation 0.00 0.01  
Year to date precipitation 2.88 9.04  
Since 1 July precipitation 0.00  
Snow  
Snow 0.00 in - - ()
Month to date snowfall 0.0  
Since 1 June snowfall 0.0  
Since 1 July snowfall 0.0  
Snow Depth -    
Sea Level Pressure  
Sea Level Pressure 29.84 in    
Wind  
Wind Speed 7 mph (NW)    
Max Wind Speed 13 mph    
Max Gust Speed 16 mph    
Visibility 10 miles    
Events      
T = Trace of Precipitation, MM = Missing Value Source: NWS Daily Summary

Daily Weather History Graph

Daily Weather History Graph

Search for Another Location

Airport or City:

Trip Planner

Search our weather history database for the weather conditions in past years. The results will help you decide how hot, cold, wet, or windy it might be!

Date:

Astronomy

Aug. 21, 2013 Rise Set
Actual Time 6:25 AM PDT 7:49 PM PDT
Civil Twilight 5:58 AM PDT 8:17 PM PDT
Nautical Twilight 5:25 AM PDT 8:49 PM PDT
Astronomical Twilight 4:50 AM PDT 9:24 PM PDT
Moon 8:03 PM PDT (8/21) 7:10 AM PDT (8/21)
Length of Visible Light 14h 18m
Length of Day
13h 23m
Full, 99% of the Moon is Illuminated
Aug 21
Full
Aug 28
Last Quarter
Sep 5
New
Sep 12
First Quarter
Sep 19
Full

Hourly Weather History & Observations

Time (PDT) Temp. Heat Index Dew Point Humidity Pressure Visibility Wind Dir Wind Speed Gust Speed Precip Events Conditions
12:55 AM 66.9 °F - 53.1 °F 61% 29.83 in 10.0 mi NNE 4.6 mph - N/A   Clear
1:55 AM 64.0 °F - 54.0 °F 70% 29.83 in 10.0 mi NNE 3.5 mph - N/A   Clear
2:55 AM 63.0 °F - 54.0 °F 72% 29.83 in 10.0 mi NNE 5.8 mph - N/A   Clear
3:55 AM 63.0 °F - 54.0 °F 72% 29.83 in 10.0 mi NNE 8.1 mph - N/A   Clear
4:55 AM 63.0 °F - 54.0 °F 72% 29.83 in 10.0 mi North 5.8 mph - N/A   Clear
5:55 AM 63.0 °F - 54.0 °F 72% 29.84 in 10.0 mi NNW 6.9 mph - N/A   Clear
6:55 AM 62.1 °F - 55.0 °F 78% 29.86 in 10.0 mi NW 5.8 mph - N/A   Clear
7:55 AM 64.0 °F - 55.9 °F 75% 29.88 in 10.0 mi NW 5.8 mph - N/A   Clear
8:55 AM 68.0 °F - 55.0 °F 63% 29.88 in 10.0 mi NW 5.8 mph - N/A   Clear
9:55 AM 71.1 °F - 55.0 °F 57% 29.89 in 10.0 mi NW 8.1 mph - N/A   Clear
10:55 AM 73.9 °F - 54.0 °F 50% 29.89 in 10.0 mi WNW 6.9 mph - N/A   Partly Cloudy
11:55 AM 77.0 °F - 54.0 °F 45% 29.89 in 10.0 mi WNW 5.8 mph - N/A   Clear
12:55 PM 82.9 °F 81.8 °F 53.1 °F 36% 29.87 in 10.0 mi Variable 5.8 mph - N/A   Clear
1:55 PM 86.0 °F 84.5 °F 55.0 °F 35% 29.86 in 10.0 mi NW 9.2 mph - N/A   Clear
2:55 PM 87.1 °F 85.3 °F 55.0 °F 33% 29.83 in 10.0 mi NNW 5.8 mph - N/A   Clear
3:55 PM 88.0 °F - 52.0 °F 29% 29.81 in 10.0 mi NW 4.6 mph - N/A   Clear
4:55 PM 89.1 °F 86.7 °F 53.1 °F 29% 29.80 in 10.0 mi NNW 12.7 mph - N/A   Clear
5:55 PM 88.0 °F 85.7 °F 53.1 °F 30% 29.79 in 10.0 mi NW 11.5 mph - N/A   Clear
6:55 PM 84.0 °F 82.5 °F 53.1 °F 34% 29.80 in 10.0 mi WNW 15.0 mph - N/A   Clear
7:55 PM 77.0 °F - 54.0 °F 45% 29.81 in 10.0 mi WNW 17.3 mph - N/A   Clear
8:55 PM 72.0 °F - 54.0 °F 53% 29.83 in 10.0 mi WNW 13.8 mph - N/A   Clear
9:55 PM 69.1 °F - 54.0 °F 58% 29.86 in 10.0 mi WNW 16.1 mph - N/A   Clear
10:55 PM 66.0 °F - 55.0 °F 68% 29.86 in 10.0 mi NW 13.8 mph - N/A   Clear
11:55 PM 64.0 °F - 54.0 °F 70% 29.87 in 10.0 mi NW 8.1 mph - N/A   Clear